Location: 10033 Water Well
(34.0865°N, 106.8959°W)
Time: 19:01:41
(UTC+00:00)

Resurs 01 Rocket - Pass Details

Date: 16 April 2026
Orbit: 626 x 636 km, 97.7° (Epoch: 12 May)

Event Time Altitude Azimuth Distance (km) Brightness Sun altitude
Rises 02:50:31 0° 194° (SSW) 2,908 4.9 -14.8°
Reaches altitude 10° 02:53:01 10° 207° (SSW) 2,003 4.2 -15.3°
Maximum altitude 02:56:38 25° 264° (W) 1,262 3.8 -16.0°
Drops below altitude 10° 03:00:17 10° 320° (NW) 2,010 5.2 -16.7°
Sets 03:02:48 0° 334° (NNW) 2,920 5.9 -17.1°
